Change the Weather History Date:

Monday, May 19, 2014

  Actual Average Record
Temperature  
Mean Temperature 57 °F 49 °F  
Max Temperature 66 °F 61 °F 85 °F (1992)
Min Temperature 47 °F 37 °F 21 °F (1966)
Degree Days  
Heating Degree Days 8 16  
Month to date heating degree days 396 350  
Since 1 July heating degree days 8077 8000  
Cooling Degree Days 0 0  
Month to date cooling degree days 0 0  
Year to date cooling degree days 0 0  
Growing Degree Days 7 (Base 50)    
Moisture  
Dew Point 38 °F    
Average Humidity 54    
Maximum Humidity 80    
Minimum Humidity 28    
Precipitation  
Precipitation T in 0.10 in 1.50 in (2011)
Month to date precipitation 1.05 1.78  
Year to date precipitation 5.65 5.77  
Sea Level Pressure  
Sea Level Pressure 29.67 in    
Wind  
Wind Speed 6 mph (WNW)    
Max Wind Speed 18 mph    
Max Gust Speed 24 mph    
Visibility 10 miles    
Events Rain    
T = Trace of Precipitation, MM = Missing Value Source: NWS Daily Summary

Daily Weather History Graph

Daily Weather History Graph

Search for Another Location

Airport or City:

Trip Planner

Search our weather history database for the weather conditions in past years. The results will help you decide how hot, cold, wet, or windy it might be!

Date:

Astronomy

May. 19, 2014 Rise Set
Actual Time 5:25 AM MDT 8:17 PM MDT
Civil Twilight 4:51 AM MDT 8:51 PM MDT
Nautical Twilight 4:08 AM MDT 9:34 PM MDT
Astronomical Twilight 3:18 AM MDT 10:24 PM MDT
Moon 12:04 AM MDT (5/19) 10:28 AM MDT (5/19)
Length of Visible Light 15h 59m
Length of Day
14h 52m
Waning Gibbous, 70% of the Moon is Illuminated
May 19
Waning Gibbous
May 21
Last Quarter
May 28
New
Jun 5
First Quarter
Jun 12
Full

Hourly Weather History & Observations

Time (MDT) Temp. Dew Point Humidity Pressure Visibility Wind Dir Wind Speed Gust Speed Precip Events Conditions
12:53 AM 50.0 °F 45.0 °F 83% 29.52 in 10.0 mi Calm Calm - N/A   Clear
1:53 AM 53.1 °F 46.0 °F 77% 29.50 in 10.0 mi WSW 6.9 mph - N/A   Clear
2:53 AM 54.0 °F 45.0 °F 72% 29.52 in 10.0 mi NW 4.6 mph - N/A   Clear
3:53 AM 52.0 °F 43.0 °F 71% 29.55 in 10.0 mi NW 5.8 mph - N/A   Clear
4:53 AM 51.1 °F 43.0 °F 74% 29.59 in 10.0 mi WNW 4.6 mph - N/A   Clear
5:53 AM 53.1 °F 39.0 °F 59% 29.60 in 10.0 mi Calm Calm - N/A   Mostly Cloudy
8:53 AM 61.0 °F 37.9 °F 42% 29.63 in 10.0 mi Calm Calm - N/A   Clear
9:53 AM 62.1 °F 33.1 °F 34% 29.63 in 10.0 mi West 10.4 mph - N/A   Clear
10:53 AM 64.0 °F 32.0 °F 30% 29.63 in 10.0 mi West 13.8 mph 23.0 mph N/A   Mostly Cloudy
12:53 PM 62.1 °F 32.0 °F 32% 29.69 in 10.0 mi West 5.8 mph - N/A   Mostly Cloudy
1:53 PM 62.1 °F 30.9 °F 31% 29.68 in 10.0 mi WNW 9.2 mph - N/A   Overcast
2:53 PM 64.0 °F 30.0 °F 28% 29.69 in 10.0 mi WNW 8.1 mph 18.4 mph N/A   Mostly Cloudy
3:53 PM 64.9 °F 32.0 °F 29% 29.70 in 8.0 mi West 11.5 mph 21.9 mph N/A   Clear
4:53 PM 64.0 °F 30.9 °F 29% 29.70 in 10.0 mi West 13.8 mph 18.4 mph N/A   Clear
5:53 PM 64.0 °F 32.0 °F 30% 29.71 in 10.0 mi WSW 8.1 mph 18.4 mph N/A   Clear
6:53 PM 61.0 °F 30.9 °F 32% 29.75 in 10.0 mi West 8.1 mph - N/A   Clear
7:53 PM 55.0 °F 43.0 °F 64% 29.76 in 10.0 mi ENE 5.8 mph - N/A   Clear
8:53 PM 52.0 °F 42.1 °F 69% 29.79 in 10.0 mi SSE 3.5 mph - N/A   Clear
9:53 PM 51.1 °F 42.1 °F 71% 29.83 in 10.0 mi NE 4.6 mph - N/A   Scattered Clouds
10:53 PM 51.1 °F 42.1 °F 71% 29.84 in 10.0 mi North 3.5 mph - 0.00 in Rain Light Rain
11:53 PM 48.9 °F 43.0 °F 80% 29.84 in 10.0 mi East 5.8 mph - 0.00 in   Overcast